{"data":{"norad_id":47807,"epoch":"2026-05-25T05:03:25.030368Z","epoch_age_seconds":46999,"freshness":"FRESH","line1":"1 47807U 21018W   26145.21070637  .00000301  00000+0  21477-4 0  9990","line2":"2 47807  53.1568 220.7937 0001319  94.8288 265.2864 15.31709703288804","mean_motion":15.31709703,"eccentricity":0.0001319,"inclination_deg":53.1568,"raan_deg":220.7937,"arg_perigee_deg":94.8288,"mean_anomaly_deg":265.2864,"bstar":2.1477e-5,"rev_number":28880,"period_min":94.012592410926,"perigee_km":469.80770817964,"apogee_km":471.61443430084,"semimajor_km":6848.8480712402,"source":"CELESTRAK","updated_at":"2026-05-25T13:38:16.601370Z"}}